Date String (YYYY-MM-DD hh:mm:ss) UTC,Instrument flags,absolute air pressure of the measurement (hPa),sample flow rate (lpm),inlet stack bypass flow (lpm),air temperature of the measurement (°C),ambient temperature measured by the external sensor (°C),aerosol sample conditioner tube jacket temperature (°C),OPC LED temperature (°C),internal box temperature (°C),relative humidity of the measurement (%),span deviation,mass concentration of particles derived from Lorenz-Mie calculation of OPC scattering (μg/m³),mass concentration of particles derived from Lorenz-Mie calculation of OPC scattering (μg/m³),mass concentration of particles derived from Lorenz-Mie calculation of OPC scattering (μg/m³)
DateTimeUTC,F1_M11,P_M11,Q1_M11,Q2_M11,T1_M11,T2_M11,T3_M11,T4_M11,T5_M11,U1_M11,ZSPAN_M11,X2_M11,X0_M11,X1_M11
2023-06-02 07:00:00,SystemResetWarning,0827.4,5.00,000.00,029.8,028.2,000.0,038.3,031.4,24.2,0000.0,0002.04,0004.50,0001.34
2023-06-02 07:01:00,SystemResetWarning,0827.4,5.01,000.00,029.8,028.2,000.0,038.3,031.4,24.2,0000.0,0002.06,0004.51,0001.34
2023-06-02 07:02:00,SystemResetWarning,0827.4,5.00,000.00,029.8,028.2,000.0,038.3,031.4,24.3,0000.0,0002.02,0004.51,0001.32
2023-06-02 07:03:00,SystemResetWarning,0827.4,5.00,000.00,029.8,028.2,000.0,038.3,031.4,24.2,0000.0,0001.97,0004.49,0001.30
2023-06-02 07:04:00,SystemResetWarning,0827.4,5.00,000.00,029.8,028.2,000.0,038.3,031.4,24.0,0000.0,0001.91,0004.35,0001.28
2023-06-02 07:05:00,SystemResetWarning,0827.4,5.00,000.00,029.8,028.2,000.0,038.3,031.4,24.2,0000.0,0001.96,0004.48,0001.28
2023-06-02 07:06:00,SystemResetWarning,0827.4,5.00,000.00,029.8,028.1,000.0,038.3,031.4,23.8,0000.0,0001.97,0004.51,0001.27
2023-06-02 07:07:00,SystemResetWarning,0827.4,5.00,000.00,029.8,028.1,000.0,038.3,031.4,23.8,0000.0,0001.95,0004.48,0001.25
2023-06-02 07:08:00,SystemResetWarning,0827.4,5.00,000.00,029.8,028.1,000.0,038.3,031.4,24.3,0000.0,0001.92,0004.52,0001.23
2023-06-02 07:09:00,SystemResetWarning,0827.4,5.00,000.00,029.8,028.1,000.0,038.3,031.4,25.0,0000.0,0001.89,0004.31,0001.22
2023-06-02 07:10:00,SystemResetWarning,0827.4,5.00,000.00,029.8,028.1,000.0,038.3,031.4,25.0,0000.0,0001.94,0003.82,0001.21
2023-06-02 07:11:00,SystemResetWarning,0827.4,5.00,000.00,029.8,028.2,000.0,038.3,031.4,24.8,0000.0,0001.93,0003.93,0001.20
2023-06-02 07:12:00,SystemResetWarning,0827.4,5.00,000.00,029.8,028.2,000.0,038.3,031.4,24.6,0000.0,0001.92,0003.89,0001.19
2023-06-02 07:13:00,SystemResetWarning,0827.4,5.00,000.00,029.8,028.2,000.0,038.3,031.4,24.5,0000.0,0001.88,0003.75,0001.17
2023-06-02 07:14:00,SystemResetWarning,0827.4,5.00,000.00,029.8,028.2,000.0,038.3,031.4,24.4,0000.0,0001.81,0003.54,0001.16
2023-06-02 07:15:00,SystemResetWarning,0827.4,5.00,000.00,029.8,028.2,000.0,038.3,031.4,24.0,0000.0,0001.80,0003.47,0001.15
2023-06-02 07:16:00,SystemResetWarning,0827.4,5.00,000.00,029.8,028.2,000.0,038.3,031.4,24.1,0000.0,0001.74,0003.33,0001.13
2023-06-02 07:17:00,SystemResetWarning,0827.4,5.00,000.00,029.8,028.2,000.0,038.3,031.4,24.0,0000.0,0001.73,0004.22,0001.12
2023-06-02 07:18:00,SystemResetWarning,0827.4,5.01,000.00,029.8,028.2,000.0,038.3,031.4,23.7,0000.0,0001.72,0004.72,0001.12
2023-06-02 07:19:00,SystemResetWarning,0827.4,5.00,000.00,029.8,028.2,000.0,038.3,031.4,23.9,0000.0,0001.75,0004.80,0001.13
2023-06-02 07:20:00,SystemResetWarning,0827.4,5.01,000.00,029.8,028.2,000.0,038.3,031.4,23.5,0000.0,0001.84,0004.95,0001.15
2023-06-02 07:21:00,SystemResetWarning,0827.4,5.00,000.00,029.8,028.3,000.0,038.3,031.4,23.3,0000.0,0001.82,0004.89,0001.14
2023-06-02 07:22:00,SystemResetWarning,0827.3,5.00,000.00,029.8,028.3,000.0,038.3,031.4,23.1,0000.0,0001.80,0004.76,0001.13
2023-06-02 07:23:00,SystemResetWarning,0827.4,5.00,000.00,029.9,028.3,000.0,038.3,031.4,22.4,0000.0,0001.75,0004.65,0001.13
2023-06-02 07:24:00,SystemResetWarning,0827.4,5.00,000.00,029.9,028.3,000.0,038.3,031.4,21.9,0000.0,0001.71,0004.51,0001.14
2023-06-02 07:25:00,SystemResetWarning,0827.4,5.00,000.00,029.9,028.2,000.0,038.3,031.4,21.7,0000.0,0001.72,0004.54,0001.14
2023-06-02 07:26:00,SystemResetWarning,0827.4,5.00,000.00,029.9,028.2,000.0,038.3,031.4,21.1,0000.0,0001.72,0004.55,0001.14
2023-06-02 07:27:00,SystemResetWarning,0827.3,5.00,000.00,029.9,028.2,000.0,038.3,031.4,20.6,0000.0,0001.76,0004.66,0001.14
2023-06-02 07:28:00,SystemResetWarning,0827.4,5.00,000.00,029.9,028.2,000.0,038.3,031.4,20.6,0000.0,0001.76,0003.89,0001.14
2023-06-02 07:29:00,SystemResetWarning,0827.4,5.00,000.00,029.9,028.2,000.0,038.3,031.4,20.6,0000.0,0001.74,0003.31,0001.14
2023-06-02 07:30:00,SystemResetWarning,0827.4,5.00,000.00,029.9,028.2,000.0,038.3,031.4,20.8,0000.0,0001.73,0003.25,0001.14
2023-06-02 07:31:00,SystemResetWarning,0827.4,4.99,000.00,029.9,028.2,000.0,038.3,031.5,22.3,0000.0,0001.71,0003.28,0001.12
2023-06-02 07:32:00,SystemResetWarning,0827.4,5.01,000.00,029.9,028.3,000.0,038.3,031.5,25.0,0000.0,0001.66,0003.15,0001.10
2023-06-02 07:33:00,SystemResetWarning,0827.4,5.02,000.00,029.9,028.3,000.0,038.3,031.5,26.1,0000.0,0001.64,0003.20,0001.10
2023-06-02 07:34:00,SystemResetWarning,0827.5,5.00,000.00,029.9,028.3,000.0,038.3,031.5,25.7,0000.0,0001.65,0003.24,0001.10
2023-06-02 07:35:00,SystemResetWarning,0827.7,4.99,000.00,029.9,028.3,000.0,038.3,031.4,25.0,0000.0,0001.71,0003.35,0001.11
2023-06-02 07:36:00,SystemResetWarning,0827.6,5.00,000.00,029.9,028.3,000.0,038.3,031.4,25.0,0000.0,0001.80,0003.59,0001.13
2023-06-02 07:37:00,SystemResetWarning,0827.5,5.00,000.00,029.9,028.3,000.0,038.3,031.4,25.2,0000.0,0001.85,0004.00,0001.15
2023-06-02 07:38:00,SystemResetWarning,0827.5,5.01,000.00,029.8,028.3,000.0,038.3,031.4,25.1,0000.0,0001.87,0004.42,0001.17
2023-06-02 07:39:00,SystemResetWarning,0827.6,5.00,000.00,029.8,028.3,000.0,038.3,031.4,25.7,0000.0,0001.88,0004.34,0001.18
2023-06-02 07:40:00,SystemResetWarning,0827.6,4.99,000.00,029.8,028.3,000.0,038.3,031.4,25.7,0000.0,0001.94,0004.49,0001.21
2023-06-02 07:41:00,SystemResetWarning,0827.5,4.99,000.00,029.8,028.2,000.0,038.3,031.4,25.8,0000.0,0002.01,0004.60,0001.23
2023-06-02 07:42:00,SystemResetWarning,0827.5,4.99,000.00,029.8,028.2,000.0,038.3,031.4,25.9,0000.0,0002.03,0004.45,0001.24
2023-06-02 07:43:00,SystemResetWarning,0827.4,5.00,000.00,029.8,028.2,000.0,038.3,031.4,25.9,0000.0,0002.05,0004.39,0001.26
2023-06-02 07:44:00,SystemResetWarning,0827.5,5.01,000.00,029.8,028.2,000.0,038.3,031.4,26.0,0000.0,0002.08,0004.35,0001.27
2023-06-02 07:45:00,SystemResetWarning,0827.8,5.01,000.00,029.8,028.2,000.0,038.2,031.4,26.1,0000.0,0002.12,0004.48,0001.29
2023-06-02 07:46:00,SystemResetWarning,0827.5,5.00,000.00,029.8,028.2,000.0,038.2,031.4,26.3,0000.0,0002.17,0004.76,0001.31
2023-06-02 07:47:00,SystemResetWarning,0827.4,5.00,000.00,029.8,028.1,000.0,038.2,031.4,26.2,0000.0,0002.14,0005.55,0001.32
2023-06-02 07:48:00,SystemResetWarning,0827.4,4.98,000.00,029.8,028.2,000.0,038.2,031.4,25.7,0000.0,0002.13,0005.19,0001.32
2023-06-02 07:49:00,SystemResetWarning,0827.4,5.00,000.00,029.8,028.2,000.0,038.2,031.4,25.0,0000.0,0002.11,0004.80,0001.32
2023-06-02 07:50:00,SystemResetWarning,0827.4,5.00,000.00,029.8,028.2,000.0,038.2,031.4,24.5,0000.0,0002.08,0004.72,0001.31
2023-06-02 07:51:00,SystemResetWarning,0827.4,5.00,000.00,029.8,028.2,000.0,038.2,031.4,24.6,0000.0,0002.05,0004.74,0001.30
2023-06-02 07:52:00,SystemResetWarning,0827.4,5.00,000.00,029.8,028.2,000.0,038.2,031.4,25.0,0000.0,0002.02,0004.69,0001.30
2023-06-02 07:53:00,SystemResetWarning,0827.4,5.00,000.00,029.8,028.2,000.0,038.2,031.4,25.0,0000.0,0001.99,0004.74,0001.32
2023-06-02 07:54:00,SystemResetWarning,0827.4,5.00,000.00,029.8,028.2,000.0,038.2,031.4,25.0,0000.0,0002.04,0004.97,0001.32
2023-06-02 07:55:00,SystemResetWarning,0827.4,5.00,000.00,029.8,028.2,000.0,038.2,031.4,24.9,0000.0,0002.09,0005.23,0001.33
2023-06-02 07:56:00,SystemResetWarning,0827.4,5.00,000.00,029.8,028.2,000.0,038.2,031.4,24.8,0000.0,0002.06,0005.14,0001.32
2023-06-02 07:57:00,SystemResetWarning,0827.4,5.00,000.00,029.8,028.2,000.0,038.2,031.4,24.6,0000.0,0002.01,0004.83,0001.31
2023-06-02 07:58:00,SystemResetWarning,0827.4,5.00,000.00,029.8,028.2,000.0,038.2,031.4,24.8,0000.0,0002.01,0003.97,0001.29
2023-06-02 07:59:00,SystemResetWarning,0827.4,4.99,000.00,029.8,028.3,000.0,038.2,031.4,24.9,0000.0,0002.03,0004.00,0001.28
